#timestamp,LO_Frequency,Hit,StdDev 
1690372815.9,286047011.9,Y
1690372835.7,286046998.1,P
1690372855.6,286047001.1,N
1690372875.4,286047000.5,N
1690372895.3,286047000.5,N
1690372915.1,286047000.5,N
1690372935.8,286047001.0,N
1690372955.7,286047001.0,N
1690372975.5,286047000.6,N
1690372995.3,286047001.1,N
1690373015.2,286046999.9,N
1690373035.0,286047000.9,N
1690373035.9,286047000.9,N
1690373055.8,286047000.1,N
1690373075.6,286046999.8,N
1690373095.4,286047000.7,N
1690373115.3,286047001.3,N
1690373135.1,286046999.7,N
1690373155.9,286047002.6,Y
1690373175.7,286047002.3,P
1690373195.5,286047002.5,N
1690373215.4,286047001.8,N
1690373235.2,286047002.2,N
1690373255.1,286047001.8,N
1690373256.0,286047001.8,N
1690373275.8,286047001.8,N
1690373295.6,286047002.1,Y
1690373315.5,286047001.2,P
1690373335.3,286047000.9,N
1690373355.2,286047001.2,P
1690373375.9,286046998.6,Y
1690373395.7,286046997.3,P
1690373415.6,286046999.2,N
1690373435.4,286046996.6,N
1690373455.2,286046997.1,N
1690373475.1,286046997.4,N
1690373476.0,286046997.4,N
1690373495.8,286046997.3,N
1690373515.7,286046997.8,N
1690373535.5,286046996.5,N
1690373555.3,286046997.2,N
1690373575.2,286046997.7,N
1690373595.0,286046997.4,N
1690373595.9,286046997.4,N
1690373615.7,286046996.8,N
1690373635.6,286046996.8,N
1690373655.4,286046999.5,N
1690373675.3,286046996.6,N
1690373695.1,286046996.5,N
1690373696.0,286046996.5,Y
1690373715.8,286046998.2,P
1690373735.7,286046998.1,P
1690373755.5,286046998.1,P
1690373775.4,286046998.8,Y
1690373795.2,286047000.1,P
1690373815.0,286046999.7,N
1690373815.9,286046999.7,N
1690373835.8,286047002.3,N
1690373855.6,286047001.3,N
1690373875.5,286047004.3,Y
1690373895.3,286047001.7,P
1690373915.1,286047001.9,N
1690373935.9,286047002.2,N
1690373955.7,286047002.0,N
1690373975.5,286047002.4,Y
1690373995.4,286047001.1,P
1690374015.2,286047001.0,P
1690374035.1,286046999.8,N
1690374036.0,286046999.8,N
1690374055.8,286047000.7,N
1690374075.6,286047000.5,N
1690374095.5,286047001.1,N
1690374115.3,286046999.9,N
1690374135.1,286047000.4,N
1690374155.9,286046999.8,N
1690374175.7,286047002.1,Y
1690374195.6,286047000.2,P
1690374215.4,286047002.8,P
1690374235.2,286047002.6,N
1690374255.1,286047000.3,N
1690374256.0,286047000.3,N
1690374275.8,286047000.2,N
1690374295.7,286047002.6,N
1690374315.5,286047002.5,N
1690374335.3,286047001.7,N
1690374355.2,286047002.4,N
1690374375.0,286047002.3,N
1690374375.9,286047002.3,N
1690374395.8,286047000.1,N
1690374415.6,286047002.3,N
1690374435.4,286047002.8,N
1690374455.3,286046999.9,N
1690374475.1,286047002.8,N
1690374495.8,286047002.6,N
1690374515.7,286047002.8,N
1690374535.5,286047002.3,N
1690374555.4,286047002.2,N
1690374575.2,286047002.0,N
1690374595.0,286047002.6,N
1690374595.9,286047002.6,N
1690374615.8,286047001.7,N
1690374635.6,286047002.7,N
1690374655.4,286047002.3,N
1690374675.3,286046999.9,N
1690374695.1,286047002.1,N
1690374715.9,286047001.4,N
1690374735.7,286047002.0,N
1690374755.5,286047002.0,N
1690374775.4,286047001.6,N
1690374795.2,286047001.4,N
1690374815.0,286047001.7,N
1690374815.9,286047001.7,N
1690374835.8,286047001.8,N
1690374855.6,286047001.8,N
1690374875.5,286047002.2,N
1690374895.3,286047001.5,N
1690374915.1,286047001.9,N
1690374935.9,286047001.3,N
1690374955.7,286047001.6,N
1690374975.5,286047001.6,N
1690374995.4,286047002.6,Y
1690375015.2,286047000.0,P
1690375035.1,286047000.0,N
1690375036.0,286047000.0,N
1690375055.8,286047000.7,N
1690375075.6,286047000.6,N
1690375095.5,286047000.9,N
1690375115.3,286047000.7,N
1690375135.2,286046998.6,N
1690375155.9,286046998.2,N
1690375175.7,286046999.9,N
1690375195.6,286047001.0,N
1690375215.4,286047001.1,N
1690375235.2,286047000.9,N
1690375255.1,286047000.8,N
1690375256.0,286047000.8,N
1690375275.8,286047000.9,N
1690375295.7,286047000.8,N
1690375315.5,286047000.4,N
1690375335.3,286047000.5,N
1690375355.2,286047000.7,N
1690375375.0,286047000.5,N
1690375375.9,286047000.5,N
1690375395.7,286046999.8,N
1690375415.6,286046999.8,N
1690375435.4,286047002.1,N
1690375455.3,286047002.0,N
1690375475.1,286047002.4,N
1690375476.0,286047002.4,N
1690375495.8,286047001.6,N
1690375515.7,286047004.4,Y
1690375535.5,286047001.7,P
1690375555.3,286047001.4,N
1690375575.2,286047002.2,P
1690375595.0,286047000.1,N
1690375595.9,286047000.1,N
1690375615.8,286047000.9,N
1690375635.6,286047000.9,N
1690375655.4,286047000.2,N
1690375675.3,286046998.1,N
1690375695.1,286047000.3,N
1690375715.9,286047000.9,N
1690375735.7,286047001.1,N
1690375755.5,286047000.3,N
1690375775.4,286047000.8,N
1690375795.2,286047000.7,N
1690375815.0,286047001.2,N
1690375815.9,286047001.2,N
1690375835.8,286047000.6,N
1690375855.6,286047000.2,N
1690375875.5,286047000.0,N
1690375895.3,286047000.3,N
1690375915.1,286047000.2,N
1690375935.9,286047002.8,Y
1690375955.7,286047001.0,P
1690375975.5,286047000.5,N
1690375995.4,286047000.9,P
1690376015.2,286046999.9,N
1690376035.1,286047000.8,N
1690376036.0,286047000.8,N
1690376055.8,286047000.6,N
1690376075.6,286046999.8,N
1690376095.5,286047000.2,N
1690376115.3,286047000.9,N
1690376135.1,286047000.6,N
1690376155.9,286047000.3,N
1690376175.7,286047000.0,N
1690376195.6,286047000.2,N
1690376215.4,286047000.2,N
1690376235.2,286047000.3,N
1690376255.1,286047000.6,N
1690376256.0,286047000.6,N
1690376275.8,286047001.1,Y
1690376295.7,286046998.2,P
1690376315.5,286047001.2,N
1690376335.3,286046998.5,N
1690376355.2,286046998.1,N
1690376375.0,286047001.0,N
1690376375.9,286047001.0,N
1690376395.7,286047000.6,N
